EW0362 Weather Reports


time (UTC)temp
C
wind
direction
speed
KPH
gust
KPH
rain 1hr
cm
rain 24hr
cm
rain mn
cm
humidity
%
barometer
mb
20260508194204 15 291 3.2 4.8 0.00 0.00 0.00 39 1008.2
20260508193704 15 248 3.2 8.0 0.00 0.00 0.00 37 1008.3
20260508192705 15 223 1.6 8.0 0.00 0.00 0.00 38 1008.3
20260508192205 15 276 3.2 14.5 0.00 0.00 0.00 38 1008.3
20260508191704 15 277 4.8 9.7 0.00 0.00 0.00 37 1008.3
20260508191206 15 283 0.0 4.8 0.00 0.00 0.00 35 1008.3
20260508185705 15 263 4.8 19.3 0.00 0.00 0.00 38 1008.4
20260508184705 15 279 3.2 14.5 0.00 0.00 0.00 37 1008.5
20260508184205 15 267 4.8 9.7 0.00 0.00 0.00 36 1008.5
20260508183205 15 294 3.2 12.9 0.00 0.00 0.00 37 1008.4
20260508180704 15 226 3.2 12.9 0.00 0.00 0.00 34 1008.3
20260508175704 15 224 3.2 8.0 0.00 0.00 0.00 36 1008.2
20260508175205 15 290 3.2 16.1 0.00 0.00 0.00 36 1008.3
20260508173705 15 209 3.2 12.9 0.00 0.00 0.00 38 1008.2
20260508171704 15 289 4.8 14.5 0.00 0.00 0.00 41 1008.4
20260508170704 15 260 4.8 9.7 0.00 0.00 0.00 39 1008.3
20260508165705 15 207 4.8 11.3 0.00 0.00 0.00 40 1008.3
20260508164704 15 178 3.2 11.3 0.00 0.00 0.00 42 1008.3
20260508163204 15 281 4.8 11.3 0.00 0.00 0.00 40 1008.3
20260508161705 14 107 3.2 11.3 0.00 0.00 0.00 42 1008.3
20260508160704 14 223 4.8 16.1 0.00 0.00 0.00 40 1008.3
20260508155705 14 242 3.2 12.9 0.00 0.00 0.00 40 1008.5
20260508155205 14 300 4.8 12.9 0.00 0.00 0.00 40 1008.6
20260508153704 13 57 1.6 4.8 0.00 0.00 0.00 42 1008.9
20260508152704 13 34 3.2 14.5 0.00 0.00 0.00 41 1008.9
20260508152204 13 270 4.8 11.3 0.00 0.00 0.00 41 1009.0
20260508151704 13 284 1.6 4.8 0.00 0.00 0.00 44 1008.9
20260508151204 13 318 3.2 11.3 0.00 0.00 0.00 43 1009.0
20260508150704 13 12 4.8 14.5 0.00 0.00 0.00 42 1008.9
20260508144204 13 317 4.8 11.3 0.00 0.00 0.00 43 1009.1
20260508143204 13 339 1.6 8.0 0.00 0.00 0.00 45 1009.1
20260508140205 12 308 1.6 12.9 0.00 0.00 0.00 46 1009.3
20260508135703 13 257 1.6 8.0 0.00 0.00 0.00 46 1009.4
20260508135206 12 346 1.6 4.8 0.00 0.00 0.00 45 1009.4
20260508134704 12 261 3.2 12.9 0.00 0.00 0.00 46 1009.4
20260508134206 12 272 4.8 14.5 0.00 0.00 0.00 46 1009.5
20260508133704 12 294 3.2 8.0 0.00 0.00 0.00 47 1009.5
20260508133205 12 254 4.8 22.5 0.00 0.00 0.00 48 1009.4
20260508130704 11 331 4.8 11.3 0.00 0.00 0.00 51 1009.7
20260508130204 11 276 3.2 16.1 0.00 0.00 0.00 52 1009.7
20260508125704 11 210 3.2 9.7 0.00 0.00 0.00 54 1009.7
20260508123204 9 11 1.6 4.8 0.00 0.00 0.00 64 1009.8
20260508122704 8 252 3.2 9.7 0.00 0.00 0.00 64 1009.8
20260508122205 8 302 1.6 4.8 0.00 0.00 0.00 68 1009.8
20260508120204 6 268 1.6 4.8 0.00 0.00 0.00 75 1009.9
20260508114704 4 299 0.0 3.2 0.00 0.00 0.00 91 1009.7
20260508114204 3 296 0.0 1.6 0.00 0.00 0.00 94 1009.8
20260508113205 3 296 0.0 0.0 0.00 0.00 0.00 94 1009.8
20260508111704 2 296 0.0 0.0 0.00 0.00 0.00 94 1009.8
20260508111204 2 296 0.0 0.0 0.00 0.00 0.00 94 1009.8
20260508110204 2 296 0.0 0.0 0.00 0.00 0.00 93 1009.8
20260508102204 1 296 0.0 0.0 0.00 0.00 0.00 91 1009.4
20260508101204 1 296 0.0 0.0 0.00 0.00 0.00 91 1009.2
20260508095204 1 296 0.0 0.0 0.00 0.00 0.00 91 1009.1
20260508094704 1 296 0.0 0.0 0.00 0.00 0.00 91 1009.1
20260508094204 1 296 0.0 0.0 0.00 0.00 0.00 91 1009.0
20260508093704 1 296 0.0 0.0 0.00 0.00 0.00 91 1008.9
20260508093204 1 296 0.0 0.0 0.00 0.00 0.00 91 1008.9
20260508091704 1 296 0.0 0.0 0.00 0.03 0.00 91 1008.8
20260508091204 1 296 0.0 0.0 0.00 0.03 0.00 91 1008.7
20260508090704 1 296 0.0 0.0 0.00 0.03 0.00 91 1008.8
20260508090203 1 296 0.0 0.0 0.00 0.03 0.00 91 1008.8
20260508085704 1 296 0.0 0.0 0.00 0.03 0.00 91 1008.7
20260508085205 1 296 0.0 0.0 0.00 0.03 0.00 90 1008.7
20260508084704 1 296 0.0 0.0 0.00 0.03 0.00 90 1008.7
20260508084204 1 296 0.0 0.0 0.00 0.03 0.00 90 1008.7
20260508083703 2 296 0.0 0.0 0.00 0.03 0.00 90 1008.7
20260508083204 2 296 0.0 0.0 0.00 0.03 0.00 90 1008.7
20260508081704 2 296 0.0 0.0 0.00 0.03 0.00 89 1008.5
20260508081203 2 296 0.0 0.0 0.00 0.03 0.00 90 1008.4
20260508080704 2 296 0.0 0.0 0.00 0.03 0.00 90 1008.4
20260508080204 2 296 0.0 0.0 0.00 0.03 0.00 89 1008.3
20260508074704 2 296 0.0 0.0 0.00 0.03 0.00 89 1007.8
20260508074203 2 296 0.0 0.0 0.00 0.03 0.00 89 1007.7
20260508072704 2 296 0.0 0.0 0.00 0.03 0.00 88 1007.6
20260508072204 2 296 0.0 0.0 0.00 0.03 0.00 88 1007.5
20260508071704 3 296 0.0 0.0 0.00 0.03 0.00 88 1007.5
20260508070704 3 296 0.0 0.0 0.00 0.03 0.00 87 1007.5
20260508070204 3 296 0.0 0.0 0.00 0.03 0.00 87 1007.6
20260508065704 3 296 0.0 0.0 0.00 0.03 0.00 87 1007.6
20260508065203 3 296 0.0 0.0 0.00 0.03 0.00 87 1007.5
20260508064704 3 296 0.0 0.0 0.00 0.03 0.00 87 1007.5
20260508064204 3 296 0.0 0.0 0.00 0.03 0.00 87 1007.6
20260508063704 3 296 0.0 0.0 0.00 0.03 0.00 88 1007.6
20260508062703 3 333 0.0 4.8 0.00 0.03 0.00 86 1007.6
20260508062204 3 321 0.0 3.2 0.00 0.03 0.00 85 1007.6
20260508061704 3 321 0.0 0.0 0.00 0.03 0.00 85 1007.5
20260508060204 4 321 0.0 0.0 0.00 0.03 0.00 83 1007.6
20260508055704 4 321 0.0 0.0 0.00 0.03 0.00 83 1007.7
20260508054704 4 321 0.0 0.0 0.00 0.03 0.00 83 1007.8
20260508054204 5 321 0.0 0.0 0.00 0.03 0.00 82 1007.8
20260508053203 5 321 0.0 0.0 0.00 0.03 0.00 82 1007.8
20260508052203 5 321 0.0 0.0 0.00 0.03 0.00 81 1007.9
20260508051204 5 321 0.0 0.0 0.00 0.03 0.00 81 1008.0
20260508050704 5 321 0.0 0.0 0.00 0.03 0.00 81 1008.0
20260508044204 6 321 0.0 0.0 0.00 0.03 0.00 78 1008.2
20260508042204 6 321 0.0 0.0 0.00 0.03 0.00 80 1008.3
20260508041204 6 321 0.0 0.0 0.00 0.05 0.00 77 1008.2
20260508040704 6 321 0.0 0.0 0.00 0.05 0.00 77 1008.3
20260508040204 7 321 0.0 0.0 0.00 0.05 0.00 76 1008.2
20260508035203 7 321 0.0 0.0 0.00 0.05 0.05 74 1008.2
20260508034704 7 321 0.0 0.0 0.00 0.05 0.05 76 1008.2
20260508034204 7 321 0.0 0.0 0.00 0.05 0.05 76 1008.2
20260508033703 7 321 0.0 0.0 0.00 0.05 0.05 76 1008.2
20260508033204 7 321 0.0 0.0 0.00 0.05 0.05 75 1008.3
20260508032703 7 321 0.0 0.0 0.00 0.05 0.05 74 1008.3
20260508031703 7 321 0.0 0.0 0.00 0.05 0.05 74 1008.0
20260508031203 7 321 0.0 0.0 0.00 0.05 0.05 74 1008.0
20260508030704 7 321 0.0 0.0 0.00 0.05 0.05 73 1008.0
20260508024703 7 321 0.0 0.0 0.00 0.05 0.05 70 1008.0
20260508023203 8 321 0.0 0.0 0.00 0.05 0.05 70 1007.8
20260508022704 8 321 0.0 0.0 0.00 0.05 0.05 69 1007.7
20260508022204 8 321 0.0 0.0 0.00 0.05 0.05 67 1007.8
20260508021704 8 321 0.0 0.0 0.00 0.05 0.05 65 1007.9
20260508021204 8 321 0.0 0.0 0.00 0.05 0.05 65 1007.8
20260508020705 8 321 0.0 0.0 0.00 0.05 0.05 67 1007.7
20260508015204 9 321 0.0 0.0 0.00 0.05 0.05 65 1007.7
20260508013204 10 321 0.0 0.0 0.00 0.05 0.05 61 1007.3
20260508012204 10 321 0.0 0.0 0.00 0.05 0.05 62 1007.1
20260508011205 10 321 0.0 0.0 0.00 0.05 0.05 59 1007.0
20260508005703 11 321 0.0 1.6 0.00 0.05 0.05 54 1006.8
20260508005204 11 321 0.0 0.0 0.00 0.05 0.05 53 1006.7
20260508004204 11 321 0.0 0.0 0.00 0.05 0.05 51 1006.6
20260508002205 12 321 0.0 0.0 0.00 0.05 0.05 45 1006.5
20260508001204 12 321 0.0 0.0 0.00 0.05 0.05 44 1006.4
20260507235705 13 250 0.0 4.8 0.00 0.05 0.05 43 1006.2
20260507234705 13 258 0.0 1.6 0.00 0.05 0.05 43 1006.0
20260507233704 13 258 3.2 4.8 0.00 0.05 0.05 39 1006.1
20260507232205 14 336 1.6 4.8 0.00 0.05 0.05 41 1005.9
20260507231205 15 281 1.6 9.7 0.00 0.08 0.05 38 1005.7
20260507224705 15 44 0.0 3.2 0.00 0.18 0.05 37 1005.7
20260507224205 15 323 4.8 19.3 0.00 0.18 0.05 37 1005.7
20260507223705 15 319 4.8 14.5 0.00 0.18 0.05 35 1005.6
20260507223204 15 271 1.6 4.8 0.00 0.18 0.05 38 1005.5
20260507221704 16 221 3.2 11.3 0.00 0.20 0.05 36 1005.4
20260507220204 16 223 4.8 19.3 0.00 0.20 0.05 35 1005.3
20260507214704 16 302 3.2 9.7 0.00 0.23 0.05 36 1005.1
20260507214206 16 251 3.2 9.7 0.00 0.23 0.05 35 1005.1
20260507213704 16 273 1.6 11.3 0.00 0.23 0.05 37 1005.1
20260507212704 16 237 6.4 12.9 0.00 0.25 0.05 36 1005.1
20260507210206 17 157 1.6 12.9 0.00 0.25 0.05 36 1005.1
20260507203204 17 287 3.2 12.9 0.00 0.33 0.05 37 1005.0
20260507202705 17 274 3.2 11.3 0.00 0.33 0.05 39 1004.9
20260507202204 17 304 3.2 11.3 0.00 0.33 0.05 38 1005.0
20260507201705 17 10 3.2 12.9 0.00 0.33 0.05 38 1004.9
20260507201204 17 275 4.8 16.1 0.00 0.36 0.05 36 1005.0
20260507200705 17 255 3.2 14.5 0.00 0.36 0.05 39 1005.0
20260507200204 17 266 3.2 11.3 0.00 0.36 0.05 38 1005.0
20260507195204 17 220 4.8 9.7 0.00 0.36 0.05 38 1005.1